Flag for Canada Weather past 2 weeks in Prince George, British Columbia, Canada

Now
37 °F

Fog.


Feels Like: 37 °F
Forecast: 41 / 74 °F
Wind: No wind

Location: Prince George

Current Time: Sep 16, 2014 at 7:18:49 AM

Latest Report: Sep 16, 2014 at 6:00 AM


Visibility: 0 mi

Pressure: 29.91 "Hg

Humidity: 93%

Dew point: 36 °F

Location of Prince GeorgeLocation

Historic Weather in Prince George — Graph

°F

Prince George temperature yesterday

Maximum temperature yesterday: 75 °F (at 4:00 PM)
Minimum temperature yesterday: 34 °F (at 6:00 AM)
Average temperature yesterday: 52 °F

Past Weeks' High & Low Weather Summary

 TemperatureHumidityPressure
High79 °F (Sep 6, 4:00 PM)100% (Sep 2, 5:00 AM)30.60 "Hg (Sep 2, 5:00 AM)
Low23 °F (Sep 11, 5:00 AM)30% (Sep 6, 4:00 PM)29.77 "Hg (Sep 7, 4:03 PM)
Average48 °F75%30.12 "Hg
* Reported Sep 1 6:00 AM — Sep 16 6:00 AM, Prince George, Weather by CustomWeather, © 2014

Note: Actual official high and low records may vary slightly from our data, if they occured in-between our weather recording intervals... More about our weather records

Advertising

Prince George weather history for previous 24 hours

 ConditionsComfort  
Time TempWeatherWind HumidityBarometerVisibility
6:00 AM
Sep 16
37 °FFog.No wind93%29.91 "Hg0 mi
5:00 AM37 °FFog.2 mph93%29.90 "Hg3 mi
4:00 AM39 °FPassing clouds.No wind93%29.90 "Hg9 mi
3:00 AM39 °FClear.No wind100%29.90 "Hg9 mi
2:04 AM41 °FFog.No wind93%29.89 "Hg1 mi
1:00 AM45 °FClear.No wind93%29.89 "Hg9 mi
12:00 AM46 °FClear.No wind87%29.89 "Hg9 mi
11:00 PM
Sep 15
48 °FPassing clouds.No wind87%29.89 "Hg9 mi
10:00 PM50 °FClear.2 mph88%29.90 "Hg9 mi
9:00 PM52 °FClear.6 mph82%29.91 "Hg9 mi
8:00 PM57 °FSunny.No wind77%29.91 "Hg9 mi
7:00 PM66 °FSunny.5 mph60%29.91 "Hg9 mi
6:00 PM73 °FSunny.6 mph47%29.91 "Hg9 mi
5:00 PM75 °FSunny.7 mph41%29.93 "Hg9 mi
4:00 PM75 °FSunny.5 mph39%29.94 "Hg9 mi
3:00 PM73 °FSunny.6 mph41%29.96 "Hg9 mi
2:00 PM72 °FSunny.2 mph38%29.98 "Hg9 mi
1:00 PM68 °FSunny.3 mph43%30.01 "Hg9 mi
12:00 PM63 °FSunny.3 mph56%30.03 "Hg9 mi
11:00 AM55 °FSunny.2 mph67%30.04 "Hg9 mi
10:00 AM50 °FSunny.No wind82%30.05 "Hg9 mi
9:00 AM46 °FFog.5 mph93%30.06 "Hg3 mi
8:00 AM37 °FFog.No wind93%30.07 "Hg0 mi
7:00 AM34 °FFog.No wind93%30.06 "Hg0 mi
Weather by CustomWeather, © 2014

See weather overviewHow to use our weather pages